カタログに戻る

BREEZE-M DEB

LostHEO
NORAD 39987·DEBRIS·🇷🇺 Russia

打ち上げ Mar 14, 2008 から Baikonur Cosmodrome

Loading…

次のパス (今後24時間)

TLE

古いSource: Space-Track

元期: May 14, 2013, 09:45 UTC

1 39987U 08011DL  13134.40676931  .00000671  00000-0  13889-1 0  9998
2 39987  49.2320 228.9008 6432316 212.3925  82.6260  3.07413046 10953

AllMySatでBREEZE-M DEBをリアルタイム追跡

Download on the App Store